Weather in Zhindo

Russia / Zabaykalsky Krai     49°56′39″N   107°58′36″E
temp.,
°C
wind,
m/s
gust,
m/s
humid.,
%
clouds,
%
prec.,
mm/h
press.,
hPa
HPBL,
m
17 june, thu
thu1700:00+4sw239794 0.3 1011122
03:00+3wsw229971 0.4 101353
06:00+3wsw2399100 0.3 1013182
09:00+5wsw2398100 1.3 1014334
12:00+6sw2497100 0.0 1014478
15:00+9wsw259299 0.1 1012538
18:00+16nw5106211 0.6 10091646
21:00+12nw49774 1.7 1009479
18 june, fri
fri1800:00+7wsw22950 0.1 101129
03:00+5wsw22971 0.1 101129
06:00+4wsw22976 0.0 101130
09:00+11wsw36774 0.0 1008589
12:00+18wnw6103956 0.0 10052519
15:00+20nw7113065 0.0 10033238
18:00+20nw6103267 0.0 10033080
21:00+15nw23563 0.0 100595
19 june, sat
sat1900:00+9w117757 0.0 100613
03:00+7wsw118580 0.0 100711
06:00+6sw118995 0.0 100813
09:00+13wsw23595 0.0 1007415
12:00+19w464111 0.0 10051851
15:00+22wnw473288 0.0 10032750
18:00+22wnw463060 0.0 10022412
21:00+16wnw22572 0.0 100414
20 june, sun
sun2000:00+10e11760 0.0 100612
03:00+8ene11837 0.0 100710
06:00+7ene11862 0.0 100812
09:00+15ene12555 0.0 1007297
12:00+24nne01325 0.0 10051286
15:00+26nw11281 0.0 10031902
18:00+27wnw01300 0.0 10021822
21:00+20ne225599 0.0 100324
21 june, mon
mon2100:00+15ene2266100 0.0 100535
03:00+12sw2284100 0.1 100832
06:00+12ene2393100 0.5 100854
09:00+14ese1294100 1.5 1010134
12:00+13ene1299100 7.7 1011105
15:00+15ene238695 8.3 1010363
18:00+21ene11564 0.0 1008952
21:00+18ne22755 0.1 100935